Weather WX

World > North America > United States > Missouri

Edgerton, Missouri Regional Weather

Lat: 39.51N, Lon: 94.63W
Wx Zone: MOZ028
Warning FLW WEATHER ALERT - (More Info. Click Here) Warning
Feedback

Edgerton, MO Regional Weather

Expires:201906161500;;163003
ASUS43 KEAX 161410
RWREAX

WEATHER ROUNDUP FOR EASTERN KANSAS AND NORTHWEST MISSOURI
NATIONAL WEATHER SERVICE KANSAS CITY/PLEASANT HILL MO
900 AM CDT SUN JUN 16 2019


KSZ040-057-103>105-MOZ028-029-037-043-161500-
...KANSAS CITY METROPOLITAN AREA...
  
CITY           SKY/WX    TMP DP  RH WIND       PRES   REMARKS
K.C. INTL      CLOUDY    71  66  84 CALM      29.87F                  
K.C. DOWNTOWN  MOSUNNY   73  65  75 W3        29.84F                  
LEES SUMMIT    SUNNY     72  65  78 SW6       29.86F                  
OLATHE - IXD   SUNNY     72  66  81 CALM      29.87F                  
OLATHE - OJC   SUNNY     72  68  87 VRB3      29.87F                  
LAWRENCE       SUNNY     72  66  81 W5        29.86F                  

$$
 

SKY/WX - Weather  TMP - Temperature  DP - Dew Point  RH - Relative Humidity
WIND - Wind Direction/Speed PRES - Barometric Pressure VSB - Visibility
WCI - Wind Chill Index E13G22 Wind - East Wind 13 mph/Gusts of 22 mph